Content
SEND FEEDBACK

Daily
Averages
Monthly
Summary
United States of America

BARRINGTON, ILLINOIS


Home > North America > United States > Illinois
Elevation: 810 feet     Latitude: 42 10N     Longitude: 088 09W

WEATHER
 
SELECT A DAY
Number of Records: 196,409;   Date Range: 1/1/95 - 7/7/14
 
SHARE

PRINT THIS DATA

[ ← Previous Day ]
WEATHER ALMANAC - APRIL 23, 2013
[ Next Day → ]
[ °C ]   °F
Weather ElementAverageHighLow
Temperature48.2 °F57.9 °F (9:51 am)39 °F (8:51 pm)
Dewpoint43.9 °F51.1 °F (12:51 pm)35.6 °F (9:07 pm)
Humidity85.8 %94 % (1:32 pm)59 % (1:51 am)
Barometer29.92 in30.01 in (1:51 am)29.88 in (3:51 pm)
Wind Speed9.9 mph13.8 mph (5:51 am)
Wind Gust24.2 mph (9:32 pm)
Weather ElementAverage
Visibility7.8 mi
Wind DirectionW (268.1 °)

Weather ElementTotal
Precipitation1.08 in
Heating Degree Days16.6 (Base 65)
Averaged from 32 records on April 23, 2013
WEATHER CONDITIONS BREAKOUT
WIND DIRECTION BREAKOUT
WEATHER BY HOUR - APRIL 23, 2013
[ °C ]   °F
Local TimeTemperatureDewpointHumidityBarometerVisibilityWind DirectionWind SpeedGust SpeedPrecipitationEventsConditions
1:51 AM54.0 °F39.9 °F59 %30.01 in10.0 miSouth (180°)5.8 mph0.00 inRainLight Rain
2:51 AM54.0 °F43.0 °F66 %29.98 in10.0 miSSW (200°)10.4 mph16.1 mph0.00 inRainLight Rain
3:51 AM55.0 °F46.0 °F72 %29.96 in10.0 miSSW (200°)4.6 mph0.01 inOvercast
4:51 AM53.1 °F46.9 °F80 %29.95 in10.0 miSouth (190°)8.1 mph0.00 inOvercast
5:51 AM53.1 °F48.0 °F83 %29.94 in10.0 miSouth (170°)13.8 mph0.00 inRainLight Rain
6:51 AM52.0 °F48.9 °F89 %29.94 in10.0 miSouth (180°)5.8 mph0.00 inOvercast
7:51 AM54.0 °F50.0 °F86 %29.92 in10.0 miSSE (160°)5.8 mphOvercast
8:51 AM57.0 °F48.9 °F74 %29.93 in10.0 miSouth (190°)9.2 mphOvercast
9:51 AM57.9 °F48.0 °F70 %29.91 in10.0 miSSW (210°)11.5 mphOvercast
10:51 AM57.9 °F48.0 °F70 %29.90 in10.0 miWSW (240°)10.4 mphOvercast
11:51 AM57.0 °F50.0 °F77 %29.91 in10.0 miWest (280°)10.4 mph0.00 inRainLight Rain
12:51 PM53.1 °F51.1 °F93 %29.90 in5.0 miNW (310°)6.9 mph0.07 inRainLight Rain
12:59 PM53.6 °F50.0 °F88 %29.89 in5.0 miNNW (340°)6.9 mph0.01 inRainRain
1:32 PM51.8 °F50.0 °F94 %29.90 in3.0 miWNW (300°)9.2 mph0.08 inRainHeavy Rain
1:49 PM51.8 °F50.0 °F94 %29.91 in3.0 miWNW (300°)13.8 mph0.11 inRainLight Rain
1:51 PM51.1 °F48.9 °F92 %29.92 in3.0 miWNW (300°)12.7 mph0.12 inRainLight Rain
2:07 PM51.8 °F48.2 °F88 %29.91 in3.0 miWNW (290°)13.8 mph0.04 inRainRain
2:35 PM50.0 °F48.2 °F94 %29.90 in5.0 miNNW (330°)12.7 mph0.08 inRainLight Rain
2:51 PM48.0 °F46.0 °F93 %29.90 in6.0 miNW (310°)12.7 mph0.09 inRainLight Rain
3:51 PM45.0 °F43.0 °F93 %29.88 in8.0 miNNW (340°)12.7 mph0.01 inRainLight Rain
4:51 PM44.1 °F41.0 °F89 %29.90 in7.0 miNNW (340°)11.5 mph0.05 inRainLight Rain
5:32 PM42.8 °F39.2 °F87 %29.90 in8.0 miNorth (350°)12.7 mph0.05 inRainRain
5:51 PM41.0 °F39.0 °F93 %29.92 in8.0 miNorth (350°)11.5 mph0.08 inRainLight Rain
6:51 PM41.0 °F39.0 °F93 %29.93 in7.0 miNNW (340°)13.8 mph0.10 inRainRain
7:36 PM39.2 °F37.4 °F93 %29.93 in7.0 miNorth (360°)11.5 mph0.04 inRainRain
7:51 PM39.9 °F37.0 °F89 %29.94 in8.0 miNorth (350°)10.4 mph0.06 inRainLight Rain
8:51 PM39.0 °F36.0 °F89 %29.94 in9.0 miNorth (360°)11.5 mph0.02 inRainLight Rain
9:07 PM39.2 °F35.6 °F87 %29.92 in10.0 miNNE (20°)10.4 mph0.00 inRainLight Rain
9:32 PM39.2 °F37.4 °F93 %29.93 in8.0 miNorth (360°)8.1 mph24.2 mph0.00 inRainLight Rain
9:51 PM39.0 °F37.0 °F93 %29.94 in8.0 miNorth (360°)6.9 mph0.00 inRainLight Rain
10:51 PM39.0 °F37.0 °F93 %29.94 in10.0 miNorth (360°)8.1 mph0.02 inRainLight Rain
11:51 PM39.0 °F37.0 °F93 %29.94 in10.0 miNorth (10°)3.5 mph0.04 inRainLight Rain
Hourly data recorded from KORD, located miles away from Barrington, Illinois







STORIES FROM OUR PARTNERS